Flag for Poland Weather past 2 weeks in Rzeszów, Poland

Now
68 °F

Passing clouds.


Feels Like: 68 °F
Forecast: 48 / 72 °F
Wind: 7 mph from West

Location: Rzeszow-Jasionka

Current Time: Jul 30, 2015 at 12:43:02 PM

Latest Report: Jul 30, 2015 at 12:00 PM


Visibility: N/A

Pressure: 29.92 "Hg

Humidity: 43%

Dew point: 45 °F

Location of RzeszówLocation

Historic Weather in Rzeszów — Graph

°F

Rzeszów temperature yesterday

Maximum temperature yesterday: 72 °F (at 5:30 PM)
Minimum temperature yesterday: 59 °F (at 3:30 AM)
Average temperature yesterday: 63 °F

Past Weeks' High & Low Weather Summary

 TemperatureHumidityPressure
High95 °F (Jul 23, 2:00 PM)100% (Jul 16, 4:00 AM)30.15 "Hg (Jul 16, 4:00 AM)
Low50 °F (Jul 27, 3:30 AM)28% (Jul 23, 2:30 PM)29.71 "Hg (Jul 25, 3:30 PM)
Average71 °F69%29.92 "Hg
* Reported Jul 15 11:00 AM — Jul 30 11:30 AM, Rzeszów, Weather by CustomWeather, © 2015

Note: Actual official high and low records may vary slightly from our data, if they occured in-between our weather recording intervals... More about our weather records

Advertising

Rzeszów weather history for previous 24 hours

 ConditionsComfort  
Time TempWeatherWind HumidityBarometerVisibility
11:30 AM
Thu, Jul 30
66 °FPassing clouds.10 mph49%29.92 "HgN/A
11:00 AM68 °FPassing clouds.9 mph49%29.92 "HgN/A
10:30 AM66 °FPassing clouds.12 mph46%29.92 "HgN/A
10:00 AM64 °FSunny.13 mph56%29.92 "Hg10 mi
9:30 AM63 °FPassing clouds.9 mph64%29.92 "HgN/A
9:00 AM61 °FSunny.10 mph72%29.92 "Hg10 mi
8:30 AM61 °FSunny.13 mph77%29.92 "Hg10 mi
8:00 AM59 °FSunny.9 mph88%29.92 "Hg10 mi
7:30 AM59 °FPassing clouds.10 mph88%29.89 "HgN/A
7:00 AM59 °FSprinkles. Partly sunny.14 mph88%29.89 "HgN/A
6:30 AM61 °FPartly sunny.9 mph83%29.89 "HgN/A
6:00 AM61 °FPartly sunny.7 mph88%29.86 "HgN/A
5:30 AM61 °FPassing clouds.6 mph88%29.86 "HgN/A
5:00 AM61 °FPassing clouds.3 mph88%29.86 "HgN/A
4:30 AM61 °FSprinkles. Passing clouds.5 mph88%29.86 "HgN/A
4:00 AM61 °FSprinkles. Passing clouds.6 mph94%29.86 "HgN/A
3:30 AM61 °FPassing clouds.5 mph94%29.86 "HgN/A
3:00 AM61 °FPassing clouds.3 mph88%29.83 "HgN/A
2:30 AM61 °FSprinkles. Passing clouds.5 mph88%29.83 "HgN/A
2:00 AM61 °FPassing clouds.5 mph88%29.83 "HgN/A
1:30 AM61 °FPassing clouds.3 mph88%29.83 "HgN/A
1:00 AM61 °FPassing clouds.2 mph88%29.80 "HgN/A
12:30 AM61 °FClear.2 mph88%29.80 "Hg10 mi
12:00 AM61 °FClear.2 mph88%29.83 "Hg10 mi
11:30 PM
Wed, Jul 29
61 °FClear.3 mph88%29.83 "Hg10 mi
11:00 PM63 °FClear.1 mph83%29.80 "Hg10 mi
10:30 PM63 °FClear.5 mph83%29.80 "Hg10 mi
10:00 PM63 °FClear.6 mph83%29.83 "Hg10 mi
9:30 PM63 °FClear.6 mph83%29.83 "Hg10 mi
9:00 PM63 °FSunny.6 mph83%29.83 "Hg10 mi
8:30 PM64 °FSunny.5 mph78%29.80 "Hg10 mi
8:00 PM66 °FSunny.6 mph73%29.80 "Hg10 mi
7:30 PM68 °FPassing clouds.8 mph64%29.80 "HgN/A
7:00 PM70 °FPassing clouds.8 mph60%29.80 "HgN/A
6:30 PM70 °FPassing clouds.9 mph60%29.80 "HgN/A
6:00 PM70 °FPassing clouds.8 mph57%29.80 "HgN/A
5:30 PM72 °FScattered clouds.10 mph50%29.80 "HgN/A
5:00 PM70 °FScattered clouds.8 mph57%29.80 "HgN/A
4:30 PM68 °FScattered clouds.8 mph60%29.80 "HgN/A
4:00 PM68 °FScattered clouds.6 mph60%29.83 "HgN/A
3:30 PM68 °FScattered clouds.7 mph64%29.83 "HgN/A
3:00 PM68 °FScattered clouds.5 mph60%29.83 "HgN/A
2:30 PM68 °FScattered clouds.7 mph64%29.83 "HgN/A
2:00 PM66 °FPartly sunny.7 mph64%29.83 "HgN/A
1:30 PM64 °FScattered clouds.5 mph73%29.83 "HgN/A
1:00 PM64 °FBroken clouds.6 mph83%29.86 "HgN/A
12:30 PM64 °FScattered clouds.5 mph83%29.86 "HgN/A
12:00 PM63 °FScattered clouds.7 mph88%29.86 "HgN/A
Weather by CustomWeather, © 2015

See weather overviewHow to use our weather pages